THOR ABLESTAR DEB, 261

Orbit data source: Space-Track

THOR ABLESTAR DEB, 261 is space debris in LEO originally from a launch on Thu, 29 Jun 1961 UTC launched from the Air Force Eastern Test Range (AFETR). Debris objects in space refer to the collection of defunct objects orbiting the Earth. Examples of debris include non-operational satellites, rocket bodies, and fragments generated from explosions, collisions, or faulty payload assembly.

Loading next visibility...
Identifier
261, 1961-015CH
Orbit
LEO
Last TLE update
14 hours ago
Origin
Manufacturer
Unknown
Mission
Spacecraft
Bus & Motor
Unknown
Mass
Unknown
Launch date (UTC)
1961-06-29 (64 years ago)
Launch vehicle
Unknown
Launch site
Air Force Eastern Test Range (AFETR)
Object type
Payload
Rocket body
Debris
Shape & HBR
Unknown
Radar Cross Section
Small (<0.1 m²)

Expand to show TLE details & history

TLE from 14 hours ago
0 THOR ABLESTAR DEB
1 00261U 61015CH  25128.65721036  .00000149  00000-0  14735-3 0  9997
2 00261  66.6821 341.8827 0095061 253.5649 105.4969 14.00856625255427
Epoch: 2025-05-08T15:46Z
Definitive object data (Epoch: 2025-05-08T15:46:22.975Z)
Latitude
-0.00007°
Longitude
-121.43762°
Altitude
911.979 km
Speed
7.387 km/s
True Right ascension
22h 47m 31s
True Declination
0° 00' 00"
Sunlit
Object was in daylight at TLE epoch
Visualization TLE readout
Latitude
-22.04809°
Longitude
-132.85064°
Altitude
889.116 km
Speed
7.412 km/s
Apparent Right ascension
23h 28m 32s
Apparent Declination
-32° 54' 37"
Sunlit
Object is in daylight
Visualization observer readout
Local Sidereal Time
13:30:38
Azimuth
83.667° E
Elevation
-64.596°
Doppler factor
1
Orbital elements
Apogee altitude
958.314 km
Perigee altitude
820.145 km
Semi-major axis
7,267.366 km
Eccentricity
0.0095061
Inclination
66.6821°
RAAN
341.8827°
Arg. of periapsis
253.5649°
True anomaly
106.54324°
Mean anomaly
105.4969°
Eccentric anomaly
106.02041°
Mean motion
3.5033 °/min
BSTAR
0.00014735
Orbital period
102.76 mins
Loading maneuver chart data...
Loading SW <> Apogee altitude chart data...

THOR ABLESTAR DEB Visibility forecast

Observer location: undefined°, undefined°

Span
Click to sort rows by Start time (UTC) header in descending order
Start Az.
Max El. time (UTC)
Max El. Az.
Max El.
End time (UTC)
End Az.
6 mins2025-05-09 14:10:59.023Z131.486° SE2025-05-09 14:13:59.023Z100.132° ESE15.134°2025-05-09 14:16:59.023Z70.245° E
10 mins2025-05-09 15:53:59.023Z212.928° SW2025-05-09 15:58:59.023Z341.473° N44.353°2025-05-09 16:03:59.023Z26.684° NE
6 mins2025-05-09 17:42:59.023Z293.597° NW2025-05-09 17:44:59.023Z315.387° NNW16.543°2025-05-09 17:48:59.023Z356.965° N
6 mins2025-05-09 23:09:59.023Z12.164° NNE2025-05-09 23:12:59.023Z47.269° ENE17.878°2025-05-09 23:15:59.023Z79.686° E
11 mins2025-05-10 00:53:59.023Z330.277° NNW2025-05-10 00:58:59.023Z292.677° NW44.954°2025-05-10 01:04:59.023Z153.571° SSE
|